Location: Del Amo
(33.8464°N, 118.2104°W)
Time: 03:04:31
(UTC+00:00)

S-56A Canister/Altair - Pass Details

Date: 18 September 2024
Orbit: 636 x 2487 km, 38.9° (Epoch: 05 October)

Event Time Altitude Azimuth Distance (km) Brightness Sun altitude
Rises 08:19:09 0° 286° (WNW) 4,478 - -53.7°
Reaches altitude 10° 08:22:08 10° 277° (W) 3,746 - -53.6°
Maximum altitude 08:30:58 35° 216° (SW) 2,864 - -53.0°
Drops below altitude 10° 08:42:40 10° 158° (SSE) 4,956 - -52.2°
Sets 08:47:22 0° 151° (SSE) 6,088 - -51.8°
